Terminal Aerodrome Forecast
Issued by NWS Louisville, KY

Home | Current Version | Previous Version | Text Only | Print | Product List | Glossary On
Versions: 1 2 3 4 5 6 7 8 9 10 11 12 13
000
FTUS43 KLMK 242320
TAFLEX
TAF
KLEX 242320Z 2500/2524 19008KT P6SM BKN180
     FM250800 17007KT P6SM SCT040 BKN180 WS015/20042KT
     FM251400 18012G25KT P6SM SCT040 BKN150
     FM252300 17012G20KT P6SM VCSH BKN040=

USA.gov is the U.S. government's official web portal to all federal, state and local government web resources and services.